Cloud_Cover
5 8 5 5 7 85 99 100 99 94 6 100 100 100 100 100 100 96 92 100 100 100 100 100 78 61 100 100 100 100 100 80 59 32 42 98 71 6 37 3 0 0 0 0 2 4 0 0 0 0 0 0 0 0
34 5 5 16 26 26 100 100 100 100 100 100 100 100 100 100 100 100 100 72 100 100 100 100 100 5 62 100 100 100 100 91 92 100 100 100 100 51 25 9 3 0 0 0 0 0 2 0 0 0 0 0 0 0
5 5 9 5 13 58 54 100 100 100 100 100 100 100 100 100 100 91 75 80 99 87 22 26 85 100 100 100 100 100 100 100 74 93 100 16 5 26 98 46 5 0 0 0 0 0 4 5 2 0 0 0 0 0
5 23 76 56 24 59 89 100 100 100 100 100 100 100 100 100 100 100 47 22 96 45 100 47 96 100 100 100 100 100 100 100 100 100 28 5 5 74 64 45 5 0 0 0 0 0 5 5 3 0 0 0 0 0
14 36 78 23 59 100 100 100 100 100 100 100 100 100 100 100 100 99 15 6 60 85 100 100 78 100 100 100 100 100 100 100 100 40 36 38 100 100 50 18 92 5 1 0 0 5 0 2 0 0 0 0 1 5
100 92 16 80 90 33 100 100 100 100 100 100 100 100 100 100 83 100 99 92 73 42 100 100 100 100 100 100 100 100 100 100 100 94 79 100 100 63 8 100 71 5 4 5 0 0 0 2 5 0 0 0 5 5
68 100 93 100 80 64 100 100 100 100 100 100 100 100 100 98 12 36 23 61 22 87 100 100 100 100 100 100 100 100 100 100 100 100 100 100 100 35 79 100 76 5 5 1 0 0 3 5 5 3 0 0 5 5
100 90 98 100 100 92 84 95 87 100 100 100 100 100 100 97 52 64 3 96 100 100 100 100 99 100 100 100 100 100 100 100 100 100 100 100 100 5 79 100 15 5 5 5 5 5 5 5 5 4 0 4 5 5
100 93 100 100 100 100 63 20 100 100 100 100 100 100 100 51 65 3 54 100 100 100 100 100 100 100 100 100 100 100 100 100 100 100 97 100 20 92 99 99 5 5 5 5 5 5 5 5 5 5 0 4 5 5
100 100 100 100 100 100 5 91 100 100 100 100 100 100 100 46 99 74 96 100 100 100 100 100 100 100 100 100 100 100 100 100 100 100 100 100 94 77 100 94 28 49 21 31 52 5 5 5 5 5 5 5 5 5
100 100 100 100 100 100 7 97 100 100 100 100 96 93 91 100 100 66 100 100 100 100 100 100 100 100 100 100 100 100 100 100 100 100 84 99 100 100 100 98 8 100 18 36 73 62 5 5 10 5 5 5 5 5
100 100 100 100 100 97 25 99 100 99 67 67 100 100 100 100 100 100 100 100 100 74 95 95 100 100 100 100 100 100 100 100 100 91 37 60 100 100 100 90 93 41 5 5 5 10 5 5 5 5 5 5 5 5
100 100 100 100 100 60 18 67 87 100 100 100 100 100 100 100 94 97 81 90 99 100 78 53 99 100 100 100 100 100 100 97 36 39 10 100 100 100 76 88 58 5 40 5 19 10 5 5 5 5 5 5 5 17
100 100 100 100 99 30 33 19 100 78 95 78 80 75 100 100 62 6 5 8 2 25 4 8 100 100 100 100 100 100 100 100 56 100 85 100 100 100 60 5 6 98 46 60 8 28 5 5 5 5 5 5 9 68
100 100 100 100 100 95 15 14 56 59 74 44 89 44 6 99 5 2 0 0 5 63 43 43 100 100 100 100 100 100 100 100 89 70 24 100 100 100 49 5 5 46 23 5 13 5 5 5 5 5 5 5 63 93
100 100 100 100 100 99 47 92 100 100 100 100 98 96 49 100 35 32 8 20 61 100 74 100 100 97 98 98 100 100 100 98 99 100 100 100 100 99 7 5 6 18 10 33 26 19 5 5 5 5 5 52 76 93
100 100 100 100 100 100 99 100 100 100 88 54 91 98 100 100 99 55 5 49 100 100 99 93 100 100 100 100 98 100 100 100 100 100 100 100 100 68 39 46 5 7 47 86 73 29 5 25 10 5 61 63 80 84
100 100 100 100 100 100 100 100 97 84 100 85 87 100 100 100 99 28 98 100 89 44 19 99 100 100 100 100 100 100 100 100 100 100 100 100 100 46 79 70 84 59 74 89 76 11 15 14 5 53 65 75 80 82
100 100 100 100 100 100 100 100 100 100 80 100 100 100 100 100 99 65 90 100 99 100 87 100 100 100 100 100 100 100 100 100 100 100 100 100 100 11 74 22 80 100 96 75 23 19 11 6 13 51 76 94 82 94
100 100 100 100 100 100 100 100 54 100 100 100 100 99 97 96 97 71 92 100 100 100 100 100 100 100 100 100 100 100 100 100 100 100 100 100 100 31 6 25 100 100 82 32 27 8 12 41 50 67 100 89 100 100
100 100 100 100 100 100 100 100 100 100 100 100 100 100 100 100 100 100 100 100 100 100 100 100 100 100 100 100 97 100 100 100 100 100 100 100 100 88 21 94 100 77 25 19 6 8 67 48 52 90 88 100 100 100
100 100 100 100 100 100 100 100 100 100 100 100 100 100 100 100 100 100 100 100 100 100 100 100 100 100 100 100 100 100 100 100 100 100 100 100 100 100 100 100 99 83 33 8 14 61 57 44 85 97 97 76 84 99
100 100 100 99 100 100 100 100 100 100 100 100 100 100 100 100 100 100 100 100 100 100 100 100 100 100 100 100 100 100 100 100 100 100 100 100 100 100 100 78 60 62 75 41 54 55 46 29 97 100 60 60 94 100
100 100 100 100 100 97 100 100 100 100 100 100 100 100 100 100 100 100 100 100 100 100 100 100 100 100 100 100 100 100 100 100 100 100 100 100 100 100 100 100 86 46 43 82 42 35 46 86 89 64 27 71 100 98
100 100 100 82 87 100 100 100 100 100 100 100 100 100 100 100 95 75 75 100 100 100 100 100 100 100 100 100 100 100 100 100 100 100 100 100 100 100 100 100 87 57 98 93 62 34 82 77 68 81 76 58 100 100
98 96 91 100 100 100 100 100 100 100 100 100 100 97 100 100 100 100 100 100 100 100 100 100 100 100 100 100 100 100 100 100 100 100 100 100 100 100 100 99 68 84 49 29 59 79 94 98 84 77 88 100 100 100
90 84 100 100 100 100 100 100 100 99 100 100 100 100 87 96 86 75 100 100 100 100 100 100 100 100 100 100 100 100 100 100 100 100 100 100 100 100 100 87 83 97 98 52 76 99 100 100 100 99 100 100 100 98
79 100 100 100 100 96 88 100 100 100 100 100 100 94 96 37 99 100 100 100 100 100 100 100 100 100 100 100 100 100 100 100 100 100 100 100 100 100 64 96 100 90 66 66 100 100 100 96 100 100 100 100 100 100
100 100 100 100 100 99 94 86 88 65 46 82 100 100 94 100 100 100 100 100 100 100 100 100 100 100 100 100 100 100 100 100 100 100 98 96 100 100 100 94 79 51 85 100 100 100 100 100 100 100 100 100 100 96
81 74 98 100 100 100 100 100 100 100 100 100 100 100 100 100 100 100 100 100 100 100 100 100 100 100 100 100 100 100 100 100 100 100 99 100 84 86 98 86 76 100 100 100 100 100 100 100 100 87 100 100 100 100
30 97 100 100 100 100 100 100 100 100 100 100 65 99 100 100 100 100 100 100 100 100 100 100 100 100 100 100 100 100 100 100 100 100 99 98 93 82 100 100 100 100 100 100 100 96 94 100 99 100 100 100 100 100
100 100 100 100 96 100 100 100 99 98 100 100 100 100 98 100 100 100 100 100 100 100 100 100 100 100 100 100 100 100 100 100 100 100 100 94 96 100 100 100 100 100 100 100 100 100 100 100 100 100 100 99 100 100
95 89 97 75 78 100 100 100 96 86 95 97 100 100 98 47 38 80 93 100 100 100 100 100 100 100 100 100 100 100 100 85 100 100 100 100 100 100 100 100 100 100 100 100 100 100 100 100 100 100 100 95 80 65